Ludington, MI

1:22 PM EST on December 15, 2019 (GMT -0500)
Mason County

Weather History for KLDM - May, 2019

Change the Weather History Date:

Wednesday, May 8, 2019

  Actual Average Record
Temperature  
Mean Temperature 46 °F -  
Max Temperature 56 °F 64 °F 81 °F (1988)
Min Temperature 35 °F 40 °F 24 °F (2017)
Degree Days  
Heating Degree Days 20    
Moisture  
Dew Point 31 °F    
Average Humidity 54    
Maximum Humidity 73    
Minimum Humidity 29    
Precipitation  
Precipitation 0.03 in - - ()
Sea Level Pressure  
Sea Level Pressure 30.13 in    
Wind  
Wind Speed 11 mph (East)    
Max Wind Speed 25 mph    
Max Gust Speed 37 mph    
Visibility 10 miles    
Events Rain    
Averages and records for this station are not official NWS values.
T = Trace of Precipitation, MM = Missing Value Source: NWS Daily Summary

Daily Weather History Graph

Daily Weather History Graph

Search for Another Location

Airport or City:

Astronomy

May. 08, 2019 Rise Set
Actual Time 6:28 AM EDT 8:56 PM EDT
Civil Twilight 5:55 AM EDT 9:29 PM EDT
Nautical Twilight 5:15 AM EDT 10:10 PM EDT
Astronomical Twilight 4:29 AM EDT 10:56 PM EDT
Moon 9:21 AM EDT (5/8) No Moon Set
Length of Visible Light 15h 33m
Length of Day
14h 28m
Waxing Crescent, 15% of the Moon is Illuminated
May 8
Waxing Crescent
May 11
First Quarter
May 18
Full
May 26
Last Quarter
Jun 3
New

Hourly Weather History & Observations

Time (EDT) Temp. Windchill Dew Point Humidity Pressure Visibility Wind Dir Wind Speed Gust Speed Precip Events Conditions
12:15 AM 40.1 °F 35.3 °F 24.1 °F 53% 30.29 in 10.0 mi ENE 6.9 mph - N/A   Clear
12:35 AM 42.1 °F 38.4 °F 23.9 °F 49% 30.29 in 10.0 mi ENE 5.8 mph - N/A   Clear
12:55 AM 39.7 °F 36.5 °F 24.4 °F 54% 30.29 in 10.0 mi ENE 4.6 mph - N/A   Clear
12:56 AM 39.6 °F 36.3 °F 24.6 °F 55% 30.29 in 10.0 mi ENE 4.6 mph - N/A   Clear
1:15 AM 40.1 °F 36.9 °F 24.8 °F 54% 30.29 in 10.0 mi NE 4.6 mph - N/A   Clear
1:16 AM 40.1 °F 36.9 °F 24.8 °F 54% 30.29 in 10.0 mi ENE 4.6 mph - N/A   Clear
1:35 AM 39.9 °F 35.8 °F 25.5 °F 56% 30.28 in 10.0 mi ENE 5.8 mph - N/A   Clear
1:55 AM 38.7 °F 34.3 °F 26.4 °F 61% 30.28 in 10.0 mi ENE 5.8 mph - N/A   Clear
1:56 AM 38.7 °F 35.2 °F 26.2 °F 61% 30.28 in 10.0 mi ENE 4.6 mph - N/A   Clear
2:15 AM 38.8 °F 33.8 °F 26.6 °F 61% 30.27 in 10.0 mi East 6.9 mph - N/A   Clear
2:16 AM 39.0 °F 34.0 °F 26.6 °F 61% 30.27 in 10.0 mi East 6.9 mph - N/A   Clear
2:35 AM 38.1 °F 32.9 °F 27.0 °F 64% 30.27 in 10.0 mi East 6.9 mph - N/A   Clear
2:36 AM 38.1 °F 32.9 °F 27.0 °F 64% 30.27 in 10.0 mi East 6.9 mph - N/A   Clear
2:55 AM 38.7 °F 33.6 °F 27.1 °F 63% 30.27 in 10.0 mi East 6.9 mph - N/A   Clear
2:56 AM 38.5 °F 33.4 °F 27.1 °F 64% 30.27 in 10.0 mi East 6.9 mph - N/A   Clear
3:15 AM 37.8 °F 32.5 °F 27.5 °F 67% 30.27 in 10.0 mi East 6.9 mph - N/A   Clear
3:35 AM 36.9 °F 32.2 °F 28.2 °F 71% 30.27 in 10.0 mi East 5.8 mph - N/A   Clear
3:55 AM 38.5 °F 33.4 °F 28.9 °F 69% 30.26 in 10.0 mi East 6.9 mph - N/A   Clear
4:15 AM 38.7 °F 33.6 °F 28.8 °F 68% 30.27 in 10.0 mi East 6.9 mph - N/A   Clear
4:16 AM 38.7 °F 33.6 °F 28.8 °F 68% 30.27 in 10.0 mi East 6.9 mph - N/A   Clear
4:35 AM 37.4 °F 32.1 °F 28.4 °F 70% 30.27 in 10.0 mi East 6.9 mph - N/A   Clear
4:36 AM 37.4 °F 32.1 °F 28.4 °F 70% 30.27 in 10.0 mi East 6.9 mph - N/A   Clear
4:55 AM 36.3 °F 30.8 °F 28.0 °F 72% 30.29 in 10.0 mi East 6.9 mph - N/A   Clear
4:56 AM 36.3 °F 30.8 °F 28.0 °F 72% 30.29 in 10.0 mi East 6.9 mph - N/A   Clear
5:15 AM 36.3 °F 30.8 °F 28.0 °F 72% 30.29 in 10.0 mi East 6.9 mph - N/A   Clear
5:16 AM 36.1 °F 30.6 °F 28.0 °F 72% 30.29 in 10.0 mi East 6.9 mph - N/A   Clear
5:35 AM 35.6 °F 30.7 °F 27.7 °F 73% 30.29 in 10.0 mi East 5.8 mph - N/A   Clear
5:55 AM 37.9 °F 33.5 °F 28.2 °F 68% 30.29 in 10.0 mi East 5.8 mph - N/A   Clear
6:15 AM 36.3 °F 30.8 °F 28.0 °F 72% 30.28 in 10.0 mi East 6.9 mph - N/A   Clear
6:35 AM 38.3 °F 33.2 °F 27.5 °F 65% 30.28 in 10.0 mi East 6.9 mph - N/A   Clear
6:36 AM 38.1 °F 32.9 °F 27.5 °F 66% 30.28 in 10.0 mi East 6.9 mph - N/A   Clear
6:55 AM 39.0 °F 32.8 °F 27.3 °F 63% 30.29 in 10.0 mi East 9.2 mph - N/A   Clear
6:56 AM 39.0 °F 32.8 °F 27.3 °F 63% 30.29 in 10.0 mi East 9.2 mph - N/A   Clear
7:15 AM 40.6 °F 35.4 °F 27.5 °F 59% 30.28 in 10.0 mi East 8.1 mph - N/A   Clear
7:16 AM 40.8 °F 35.6 °F 27.5 °F 59% 30.28 in 10.0 mi East 8.1 mph - N/A   Clear
7:35 AM 41.4 °F 36.2 °F 27.1 °F 57% 30.29 in 10.0 mi East 8.1 mph - N/A   Clear
7:55 AM 41.9 °F 36.3 °F 27.3 °F 56% 30.29 in 10.0 mi East 9.2 mph - N/A   Clear
8:15 AM 43.0 °F 36.4 °F 27.0 °F 53% 30.28 in 10.0 mi East 12.7 mph - N/A   Clear
8:16 AM 43.0 °F 36.8 °F 27.0 °F 53% 30.28 in 10.0 mi East 11.5 mph - N/A   Clear
8:35 AM 44.6 °F 38.4 °F 26.8 °F 50% 30.28 in 10.0 mi East 12.7 mph - N/A   Clear
8:55 AM 45.5 °F 39.6 °F 25.7 °F 46% 30.26 in 10.0 mi East 12.7 mph 18.4 mph N/A   Clear
9:15 AM 46.8 °F - 25.9 °F 44% 30.26 in 10.0 mi ESE 11.5 mph 17.3 mph N/A   Clear
9:35 AM 47.7 °F - 24.6 °F 41% 30.25 in 10.0 mi ESE 12.7 mph 18.4 mph N/A   Clear
9:55 AM 49.8 °F - 25.9 °F 39% 30.25 in 10.0 mi East 16.1 mph - N/A   Clear
9:56 AM 49.8 °F - 25.7 °F 39% 30.25 in 10.0 mi East 15.0 mph - N/A   Clear
10:15 AM 51.3 °F - 25.7 °F 37% 30.24 in 10.0 mi East 13.8 mph 21.9 mph N/A   Clear
10:16 AM 51.3 °F - 25.7 °F 37% 30.24 in 10.0 mi East 13.8 mph 21.9 mph N/A   Clear
10:35 AM 52.2 °F - 26.6 °F 37% 30.23 in 10.0 mi ESE 11.5 mph - N/A   Clear
10:55 AM 52.2 °F - 26.1 °F 36% 30.22 in 10.0 mi East 13.8 mph 20.7 mph N/A   Clear
11:15 AM 53.2 °F - 26.2 °F 35% 30.21 in 10.0 mi East 16.1 mph 21.9 mph N/A   Clear
11:16 AM 53.2 °F - 26.1 °F 35% 30.21 in 10.0 mi East 16.1 mph 21.9 mph N/A   Clear
11:35 AM 54.9 °F - 26.4 °F 33% 30.19 in 10.0 mi East 12.7 mph 18.4 mph N/A   Clear
11:36 AM 55.0 °F - 26.6 °F 33% 30.19 in 10.0 mi East 13.8 mph 18.4 mph N/A   Scattered Clouds
11:55 AM 54.5 °F - 23.0 °F 29% 30.19 in 10.0 mi East 18.4 mph 24.2 mph N/A   Mostly Cloudy
11:56 AM 54.5 °F - 23.0 °F 29% 30.19 in 10.0 mi East 17.3 mph 23.0 mph N/A   Mostly Cloudy
12:15 PM 54.9 °F - 23.4 °F 30% 30.19 in 10.0 mi ESE 15.0 mph 20.7 mph N/A   Overcast
12:16 PM 54.9 °F - 23.2 °F 29% 30.19 in 10.0 mi East 15.0 mph 20.7 mph N/A   Overcast
12:35 PM 55.4 °F - 23.4 °F 29% 30.18 in 10.0 mi ESE 11.5 mph 17.3 mph N/A   Overcast
12:55 PM 56.1 °F - 24.8 °F 30% 30.18 in 10.0 mi East 15.0 mph 21.9 mph N/A   Overcast
1:15 PM 56.5 °F - 25.5 °F 30% 30.17 in 10.0 mi SE 11.5 mph 18.4 mph N/A   Overcast
1:16 PM 56.5 °F - 25.7 °F 31% 30.17 in 10.0 mi ESE 12.7 mph 18.4 mph N/A   Overcast
1:35 PM 56.3 °F - 27.0 °F 32% 30.15 in 10.0 mi East 15.0 mph 24.2 mph N/A   Overcast
1:36 PM 56.3 °F - 27.1 °F 33% 30.15 in 10.0 mi East 12.7 mph 24.2 mph N/A   Overcast
1:55 PM 55.4 °F - 27.7 °F 35% 30.15 in 10.0 mi ESE 15.0 mph 24.2 mph N/A   Overcast
2:15 PM 52.9 °F - 32.0 °F 45% 30.14 in 10.0 mi ESE 11.5 mph 28.8 mph N/A Rain Rain
2:35 PM 52.2 °F - 33.1 °F 48% 30.13 in 10.0 mi ESE 12.7 mph 24.2 mph N/A   Drizzle
2:55 PM 50.7 °F - 35.1 °F 55% 30.12 in 10.0 mi East 11.5 mph - N/A Rain Rain
2:56 PM 50.7 °F - 35.4 °F 56% 30.12 in 10.0 mi East 12.7 mph 17.3 mph N/A Rain Rain
3:15 PM 50.5 °F - 35.6 °F 57% 30.12 in 10.0 mi East 8.1 mph 16.1 mph N/A Rain Light Rain
3:35 PM 49.8 °F - 38.1 °F 64% 30.10 in 10.0 mi East 11.5 mph - N/A Rain Light Rain
3:55 PM 49.8 °F - 39.0 °F 66% 30.08 in 10.0 mi East 13.8 mph - N/A Rain Light Rain
3:56 PM 50.0 °F - 38.7 °F 65% 30.08 in 10.0 mi East 13.8 mph 18.4 mph N/A Rain Light Rain
4:15 PM 51.1 °F - 38.7 °F 63% 30.08 in 10.0 mi East 15.0 mph 20.7 mph N/A   Drizzle
4:16 PM 51.1 °F - 38.5 °F 62% 30.08 in 10.0 mi East 13.8 mph 20.7 mph N/A   Drizzle
4:35 PM 51.1 °F - 39.6 °F 65% 30.06 in 10.0 mi East 17.3 mph - N/A Rain Rain
4:36 PM 51.1 °F - 39.7 °F 65% 30.05 in 10.0 mi East 16.1 mph - N/A Rain Rain
4:55 PM 51.4 °F - 42.3 °F 71% 30.04 in 10.0 mi East 13.8 mph 17.3 mph N/A Rain Light Rain
5:15 PM 52.7 °F - 41.0 °F 64% 30.01 in 10.0 mi East 16.1 mph 23.0 mph N/A   Overcast
5:35 PM 52.7 °F - 41.2 °F 65% 30.01 in 10.0 mi East 15.0 mph 21.9 mph N/A   Mostly Cloudy
5:36 PM 52.7 °F - 41.4 °F 65% 30.00 in 10.0 mi East 16.1 mph 21.9 mph N/A   Overcast
5:55 PM 53.1 °F - 40.1 °F 61% 30.00 in 10.0 mi East 18.4 mph 24.2 mph N/A   Overcast
5:56 PM 53.1 °F - 40.1 °F 61% 30.00 in 10.0 mi East 18.4 mph 24.2 mph N/A   Overcast
6:15 PM 53.4 °F - 38.7 °F 57% 29.99 in 10.0 mi East 25.3 mph 31.1 mph 0.01 in   Overcast
6:35 PM 53.6 °F - 37.2 °F 54% 29.97 in 10.0 mi East 20.7 mph 27.6 mph 0.01 in   Mostly Cloudy
6:36 PM 53.6 °F - 37.0 °F 53% 29.97 in 10.0 mi East 21.9 mph 27.6 mph 0.01 in   Mostly Cloudy
6:55 PM 52.9 °F - 37.6 °F 56% 29.96 in 10.0 mi East 18.4 mph 25.3 mph 0.01 in Rain Light Rain
6:56 PM 52.9 °F - 37.6 °F 56% 29.96 in 10.0 mi East 19.6 mph 25.3 mph 0.01 in Rain Light Rain
7:15 PM 53.8 °F - 36.3 °F 52% 29.94 in 10.0 mi East 18.4 mph 26.5 mph N/A   Overcast
7:16 PM 53.8 °F - 36.3 °F 52% 29.93 in 10.0 mi East 19.6 mph 26.5 mph N/A   Overcast
7:35 PM 54.3 °F - 35.8 °F 50% 29.92 in 10.0 mi East 18.4 mph 26.5 mph N/A   Overcast
7:55 PM 54.5 °F - 35.2 °F 48% 29.91 in 10.0 mi ESE 21.9 mph 31.1 mph N/A   Mostly Cloudy
8:15 PM 54.5 °F - 35.4 °F 49% 29.90 in 10.0 mi ESE 18.4 mph 29.9 mph N/A   Mostly Cloudy
8:16 PM 54.5 °F - 35.4 °F 49% 29.90 in 10.0 mi ESE 15.0 mph 29.9 mph N/A   Mostly Cloudy
8:35 PM 54.1 °F - 35.6 °F 50% 29.89 in 10.0 mi ESE 18.4 mph 28.8 mph N/A   Overcast
8:36 PM 54.1 °F - 35.6 °F 50% 29.89 in 10.0 mi ESE 17.3 mph 28.8 mph N/A   Overcast
8:55 PM 53.8 °F - 35.8 °F 51% 29.89 in 10.0 mi ESE 21.9 mph 27.6 mph N/A   Mostly Cloudy
8:56 PM 53.8 °F - 35.8 °F 51% 29.89 in 10.0 mi ESE 21.9 mph 29.9 mph N/A   Scattered Clouds
9:15 PM 53.6 °F - 36.0 °F 51% 29.90 in 10.0 mi ESE 21.9 mph 35.7 mph N/A   Clear
9:35 PM 52.9 °F - 35.8 °F 52% 29.89 in 10.0 mi ESE 24.2 mph 35.7 mph N/A   Clear
9:55 PM 52.7 °F - 35.8 °F 53% 29.89 in 10.0 mi ESE 23.0 mph 33.4 mph N/A   Clear
9:56 PM 52.7 °F - 35.8 °F 53% 29.88 in 10.0 mi ESE 25.3 mph 33.4 mph N/A   Clear
10:15 PM 52.7 °F - 35.6 °F 52% 29.88 in 10.0 mi ESE 24.2 mph 32.2 mph N/A   Scattered Clouds
10:16 PM 52.7 °F - 35.6 °F 52% 29.88 in 10.0 mi ESE 19.6 mph 32.2 mph N/A   Mostly Cloudy
10:35 PM 52.7 °F - 35.4 °F 52% 29.82 in 10.0 mi ESE 24.2 mph 36.8 mph N/A Rain Light Rain
10:36 PM 52.7 °F - 35.4 °F 52% 29.83 in 10.0 mi ESE 24.2 mph 36.8 mph N/A   Light Drizzle
10:55 PM 52.7 °F - 34.7 °F 50% 29.83 in 10.0 mi ESE 20.7 mph 32.2 mph N/A   Scattered Clouds
11:15 PM 52.9 °F - 34.9 °F 50% 29.83 in 10.0 mi SE 20.7 mph 29.9 mph N/A   Mostly Cloudy
11:35 PM 50.2 °F - 38.3 °F 64% 29.80 in 10.0 mi ESE 20.7 mph 28.8 mph 0.02 in Rain Light Rain
11:36 PM 50.2 °F - 38.3 °F 64% 29.80 in 10.0 mi ESE 21.9 mph 28.8 mph 0.02 in Rain Light Rain
11:55 PM 51.1 °F - 37.6 °F 60% 29.80 in 10.0 mi ESE 18.4 mph 26.5 mph 0.02 in Rain Light Rain